User: anonymous   Login
Location: Unspecified
(0.0000°N, 0.0000°E)
Time: 18:50:57
(UTC+00:00)
Language:

OBJECT M - Orbit

View from above orbital plane
View from above orbital plane
View from above satellite
View from above satellite

Ground track
Ground track

The orbit data is extracted from the following two-line orbital elements,

1 42836U 17042M   19341.48581473  .00000107  00000-0  16068-4 0  9998
2 42836  97.5439 227.3350 0012479 204.1474 155.9162 14.91239930130564
Epoch (UTC): 07 December 2019 11:39:34
Eccentricity: 0.0012479
inclination: 97.5439°
perigee height: 585 km
apogee height: 603 km
right ascension of ascending node: 227.3350°
argument of perigee: 204.1474°
revolutions per day: 14.91239930
mean anomaly at epoch: 155.9162°
orbit number at epoch: 13056

The dashed part of the orbit path shows where the satellite is in the earth's shadow,  

DLR